GW3958 Weather Reports


time (UTC)temp
F
wind
direction
speed
knots
gust
knots
rain 1hr
in
rain 24hr
in
rain mn
in
humidity
%
barometer
mb
20260507001510 52 188 0.0 3.5 0.00 0.00 0.00 87 1007.6
20260507000015 52 188 0.9 2.6 0.00 0.00 0.00 87 1007.7
20260506230011 51 188 0.0 1.7 0.00 0.00 0.00 89 1007.1
20260506224517 51 188 0.0 0.9 0.00 0.00 0.00 89 1006.9
20260506223017 51 188 0.0 0.0 0.00 0.00 0.00 88 1006.5
20260506221523 51 188 0.0 0.0 0.00 0.00 0.00 87 1006.2
20260506220026 51 188 0.0 0.0 0.00 0.00 0.00 86 1006.3
20260506214538 51 188 0.0 0.0 0.00 0.00 0.00 85 1006.5
20260506213020 52 188 0.0 0.0 0.00 0.00 0.00 84 1006.5
20260506211521 53 188 0.0 0.0 0.00 0.00 0.00 82 1006.6
20260506210026 54 188 0.0 0.0 0.00 0.00 0.00 82 1006.7
20260506204527 54 188 0.0 0.0 0.00 0.00 0.00 81 1006.9
20260506203026 55 188 0.0 0.0 0.00 0.00 0.00 81 1006.8
20260506201518 55 188 0.0 0.9 0.00 0.00 0.00 79 1007.0
20260506200019 55 188 0.0 3.5 0.00 0.00 0.00 78 1007.1
20260506194522 55 188 0.0 6.1 0.00 0.00 0.00 79 1006.9
20260506193024 56 188 2.6 6.1 0.00 0.00 0.00 78 1006.9
20260506191528 56 188 0.0 0.0 0.00 0.00 0.00 77 1006.6
20260506190028 56 188 0.0 0.0 0.00 0.00 0.00 75 1006.1
20260506184539 57 188 0.0 0.0 0.00 0.00 0.00 73 1005.8
20260506183013 58 188 0.0 0.0 0.00 0.00 0.00 72 1005.7
20260506181513 58 188 0.0 0.9 0.00 0.00 0.00 71 1005.6
20260506180016 59 188 0.9 2.6 0.00 0.00 0.00 69 1005.5
20260506174501 60 188 0.0 0.0 0.00 0.00 0.00 70 1005.4
20260506173004 61 188 0.0 0.9 0.00 0.00 0.00 67 1005.1
20260506171505 62 188 0.0 0.9 0.00 0.00 0.00 67 1005.3
20260506170011 62 188 0.0 0.0 0.00 0.00 0.00 65 1005.0
20260506164516 63 188 0.0 1.7 0.00 0.00 0.00 63 1005.3
20260506163003 65 188 0.9 1.7 0.00 0.00 0.00 61 1005.3
20260506161506 66 174 1.7 9.6 0.00 0.00 0.00 57 1005.4
20260506160010 66 342 0.9 2.6 0.00 0.00 0.00 56 1005.6
20260506154512 66 276 0.9 2.6 0.00 0.00 0.00 55 1005.8
20260506153021 67 188 1.7 6.1 0.00 0.00 0.00 52 1005.9
20260506151503 68 125 0.9 6.1 0.00 0.00 0.00 50 1006.0
20260506150004 68 188 0.0 5.2 0.00 0.00 0.00 51 1006.0
20260506144515 69 188 0.9 2.6 0.00 0.00 0.00 48 1006.1
20260506143015 67 188 0.9 3.5 0.00 0.00 0.00 51 1006.5
20260506141518 67 188 0.9 5.2 0.00 0.00 0.00 50 1006.6
20260506140021 67 188 2.6 5.2 0.00 0.00 0.00 48 1006.7
20260506134508 68 188 1.7 5.2 0.00 0.00 0.00 46 1006.8
20260506133009 70 188 0.0 5.2 0.00 0.00 0.00 45 1006.8
20260506131521 69 75 0.9 5.2 0.00 0.00 0.00 47 1007.0
20260506130020 69 282 1.7 5.2 0.00 0.00 0.00 47 1007.1
20260506124522 70 188 1.7 7.0 0.00 0.00 0.00 46 1007.2
20260506123006 68 258 1.7 6.1 0.00 0.00 0.00 48 1007.2
20260506121510 67 117 2.6 7.0 0.00 0.00 0.00 50 1007.3
20260506120021 67 274 2.6 10.4 0.00 0.00 0.00 51 1007.4
20260506114527 68 188 3.5 7.8 0.00 0.00 0.00 49 1007.4
20260506113035 67 174 2.6 7.8 0.00 0.00 0.00 51 1007.4
20260506111512 66 174 2.6 9.6 0.00 0.00 0.00 51 1007.5
20260506110014 65 172 2.6 12.2 0.00 0.00 0.00 53 1007.8
20260506104518 66 255 0.9 13.9 0.00 0.00 0.00 52 1007.6
20260506101524 65 150 1.7 11.3 0.00 0.00 0.00 55 1007.5
20260506100028 64 174 3.5 9.6 0.00 0.00 0.00 56 1007.5
20260506094516 64 190 3.5 11.3 0.00 0.00 0.00 58 1007.6
20260506093004 63 190 4.3 10.4 0.00 0.00 0.00 58 1007.5
20260506091506 63 190 4.3 10.4 0.00 0.00 0.00 60 1007.5
20260506090008 62 259 1.7 11.3 0.00 0.00 0.00 63 1007.6
20260506084513 60 190 6.1 12.2 0.00 0.00 0.00 65 1007.5
20260506081503 59 190 0.9 7.8 0.00 0.00 0.00 68 1007.5
20260506073015 59 190 2.6 13.9 0.00 0.00 0.00 66 1007.2
20260506071519 59 190 3.5 10.4 0.00 0.00 0.00 66 1006.8
20260506061517 59 190 1.7 9.6 0.00 0.00 0.00 68 1006.5
20260506034521 53 190 1.7 5.2 0.00 0.00 0.00 75 1005.5
20260506033024 52 190 0.0 2.6 0.00 0.00 0.00 77 1005.4
20260506031526 52 190 0.0 0.9 0.00 0.00 0.00 77 1005.4
20260506024544 53 190 1.7 5.2 0.00 0.00 0.00 74 1005.3
20260506023020 52 190 0.0 0.0 0.00 0.00 0.00 76 1005.6
20260506021524 54 190 0.9 4.3 0.00 0.00 0.00 71 1005.8
20260506020024 53 190 0.0 0.0 0.00 0.00 0.00 71 1005.8
20260506014527 54 190 0.9 3.5 0.00 0.00 0.00 70 1005.8
20260506013023 54 190 0.0 2.6 0.00 0.00 0.00 70 1005.9
20260506011520 54 190 0.0 2.6 0.00 0.00 0.00 70 1005.8
20260506010029 55 190 0.0 7.8 0.00 0.00 0.00 69 1005.7
20260506004524 54 190 1.7 3.5 0.00 0.00 0.00 69 1005.7
20260506003005 54 190 0.9 5.2 0.00 0.00 0.00 69 1005.5